N666BA KBNA-KOKC

Flight info

Callsign N666BA
Flight time 1h 56m
Altitude 28000
Route ARG DWINE RIFFL3
Aircraft TBM9/L-V/N

Departure

Time 2026-04-10 21:03
Airport Nashville International Airport (KBNA)

Arrival

Time 2026-04-10 22:59
Airport OKC Will Rogers World Airport (KOKC)
Time Latitude Longitude Altitude Speed Heading
2026-04-10 21:02 36.06484 -86.71752 4318 ft 167 kts 214°
2026-04-10 21:03 36.05591 -86.72469 4254 ft 141 kts 216°
2026-04-10 21:03 36.04811 -86.73104 4088 ft 134 kts 216°
2026-04-10 21:03 36.03897 -86.73894 4038 ft 183 kts 221°
2026-04-10 21:03 36.03130 -86.75288 4042 ft 214 kts 254°
2026-04-10 21:04 36.03190 -86.77153 4334 ft 221 kts 285°
2026-04-10 21:04 36.03701 -86.78889 5453 ft 262 kts 288°
2026-04-10 21:04 36.04216 -86.80821 5465 ft 222 kts 287°
2026-04-10 21:04 36.04647 -86.82725 5446 ft 236 kts 277°
2026-04-10 21:05 36.04522 -86.84790 5406 ft 248 kts 259°
2026-04-10 21:05 36.04243 -86.86897 5660 ft 244 kts 265°
2026-04-10 21:05 36.04210 -86.88949 6167 ft 234 kts 273°
2026-04-10 21:05 36.04317 -86.90931 6732 ft 225 kts 274°
2026-04-10 21:06 36.04394 -86.92765 7395 ft 210 kts 272°
2026-04-10 21:06 36.04443 -86.94533 8043 ft 201 kts 272°
2026-04-10 21:06 36.04496 -86.96229 8704 ft 194 kts 271°
2026-04-10 21:06 36.04550 -86.97873 9377 ft 188 kts 271°
2026-04-10 21:07 36.04599 -86.99466 10070 ft 183 kts 270°
2026-04-10 21:07 36.04649 -87.01018 10706 ft 178 kts 270°
2026-04-10 21:07 36.04697 -87.02537 11343 ft 175 kts 270°
2026-04-10 21:07 36.04744 -87.04000 11986 ft 170 kts 271°
2026-04-10 21:08 36.04791 -87.05535 12296 ft 188 kts 271°
2026-04-10 21:08 36.04851 -87.07216 12561 ft 203 kts 271°
2026-04-10 21:08 36.04911 -87.09016 12829 ft 215 kts 271°
2026-04-10 21:08 36.04972 -87.10897 13096 ft 223 kts 272°
2026-04-10 21:09 36.05035 -87.12849 13367 ft 230 kts 272°
2026-04-10 21:09 36.05099 -87.14848 13637 ft 235 kts 272°
2026-04-10 21:09 36.05163 -87.16881 13906 ft 238 kts 272°
2026-04-10 21:09 36.05227 -87.18948 14168 ft 241 kts 272°
2026-04-10 21:10 36.05292 -87.21025 14395 ft 243 kts 272°
2026-04-10 21:10 36.05357 -87.23115 14631 ft 244 kts 272°
2026-04-10 21:10 36.05421 -87.25221 14867 ft 246 kts 272°
2026-04-10 21:10 36.05485 -87.27310 15102 ft 246 kts 272°
2026-04-10 21:11 36.05549 -87.29431 15343 ft 247 kts 272°
2026-04-10 21:11 36.05614 -87.31555 15584 ft 248 kts 272°
2026-04-10 21:11 36.05677 -87.33688 15825 ft 248 kts 272°
2026-04-10 21:11 36.05740 -87.35829 16071 ft 249 kts 272°
2026-04-10 21:12 36.05803 -87.37974 16323 ft 250 kts 273°
2026-04-10 21:12 36.05868 -87.40125 16565 ft 250 kts 273°
2026-04-10 21:12 36.05930 -87.42275 16812 ft 251 kts 273°
2026-04-10 21:12 36.05993 -87.44440 17015 ft 252 kts 273°
2026-04-10 21:13 36.06055 -87.46594 17216 ft 254 kts 273°
2026-04-10 21:13 36.06118 -87.48778 17421 ft 255 kts 273°
2026-04-10 21:13 36.06180 -87.50976 17624 ft 256 kts 273°
2026-04-10 21:13 36.06240 -87.53175 17829 ft 256 kts 273°
2026-04-10 21:14 36.06301 -87.55359 18035 ft 256 kts 273°
2026-04-10 21:14 36.06364 -87.57571 18241 ft 256 kts 273°
2026-04-10 21:14 36.06425 -87.59771 18452 ft 256 kts 273°
2026-04-10 21:15 36.06545 -87.64174 18832 ft 256 kts 273°
2026-04-10 21:15 36.06605 -87.66375 19019 ft 256 kts 273°
2026-04-10 21:15 36.06663 -87.68565 19326 ft 250 kts 273°
2026-04-10 21:15 36.06717 -87.70653 19787 ft 241 kts 273°
2026-04-10 21:16 36.06770 -87.72691 20255 ft 233 kts 273°
2026-04-10 21:16 36.06822 -87.74681 20733 ft 228 kts 273°
2026-04-10 21:16 36.06872 -87.76630 21221 ft 224 kts 273°
2026-04-10 21:16 36.06921 -87.78539 21714 ft 220 kts 273°
2026-04-10 21:17 36.06969 -87.80414 22215 ft 217 kts 273°
2026-04-10 21:17 36.07016 -87.82241 22720 ft 214 kts 273°
2026-04-10 21:17 36.07062 -87.84063 23241 ft 211 kts 273°
2026-04-10 21:17 36.07108 -87.85864 23772 ft 208 kts 273°
2026-04-10 21:18 36.07152 -87.87641 24230 ft 206 kts 273°
2026-04-10 21:18 36.07197 -87.89401 24682 ft 203 kts 273°
2026-04-10 21:18 36.07239 -87.91138 25138 ft 201 kts 273°
2026-04-10 21:18 36.07281 -87.92853 25602 ft 198 kts 273°
2026-04-10 21:19 36.07323 -87.94547 26080 ft 196 kts 273°
2026-04-10 21:19 36.07364 -87.96221 26561 ft 194 kts 273°
2026-04-10 21:19 36.07405 -87.97889 26962 ft 196 kts 273°
2026-04-10 21:19 36.07448 -87.99585 27338 ft 199 kts 273°
2026-04-10 21:20 36.07489 -88.01287 27718 ft 201 kts 273°
2026-04-10 21:20 36.07532 -88.03028 28109 ft 204 kts 273°
2026-04-10 21:20 36.07576 -88.04821 28280 ft 217 kts 273°
2026-04-10 21:20 36.07626 -88.06752 28291 ft 233 kts 273°
2026-04-10 21:21 36.07677 -88.08821 28293 ft 248 kts 273°
2026-04-10 21:21 36.07730 -88.11000 28291 ft 259 kts 273°
2026-04-10 21:21 36.07783 -88.13273 28289 ft 268 kts 273°
2026-04-10 21:21 36.07837 -88.15611 28290 ft 276 kts 273°
2026-04-10 21:22 36.07892 -88.18005 28287 ft 282 kts 273°
2026-04-10 21:22 36.07949 -88.20451 28285 ft 286 kts 273°
2026-04-10 21:22 36.08005 -88.22930 28285 ft 290 kts 272°
2026-04-10 21:22 36.08060 -88.25429 28286 ft 292 kts 272°
2026-04-10 21:23 36.08117 -88.27954 28275 ft 294 kts 272°
2026-04-10 21:23 36.08172 -88.30492 28285 ft 296 kts 272°
2026-04-10 21:23 36.08227 -88.33006 28285 ft 297 kts 272°
2026-04-10 21:23 36.08282 -88.35561 28285 ft 298 kts 272°
2026-04-10 21:24 36.08337 -88.38130 28284 ft 299 kts 272°
2026-04-10 21:24 36.08390 -88.40701 28269 ft 299 kts 272°
2026-04-10 21:24 36.08444 -88.43274 28283 ft 300 kts 272°
2026-04-10 21:24 36.08497 -88.45855 28282 ft 300 kts 272°
2026-04-10 21:25 36.08550 -88.48432 28281 ft 300 kts 272°
2026-04-10 21:25 36.08601 -88.51015 28281 ft 301 kts 272°
2026-04-10 21:25 36.08704 -88.56186 28278 ft 301 kts 272°
2026-04-10 21:26 36.08804 -88.61339 28274 ft 302 kts 272°
2026-04-10 21:26 36.08903 -88.66537 28270 ft 302 kts 272°
2026-04-10 21:27 36.08999 -88.71728 28266 ft 302 kts 272°
2026-04-10 21:27 36.09093 -88.76921 28265 ft 302 kts 272°
2026-04-10 21:28 36.09185 -88.82086 28262 ft 302 kts 272°
2026-04-10 21:28 36.09247 -88.87286 28259 ft 303 kts 271°
2026-04-10 21:29 36.09341 -88.92508 28251 ft 304 kts 272°
2026-04-10 21:29 36.09427 -88.97707 28253 ft 304 kts 271°
2026-04-10 21:30 36.09510 -89.02933 28263 ft 304 kts 271°
2026-04-10 21:30 36.09592 -89.08165 28272 ft 304 kts 271°
2026-04-10 21:31 36.09670 -89.13398 28278 ft 304 kts 271°
2026-04-10 21:31 36.09747 -89.18629 28279 ft 304 kts 271°
2026-04-10 21:32 36.09821 -89.23862 28282 ft 304 kts 271°
2026-04-10 21:32 36.09893 -89.29069 28282 ft 305 kts 271°
2026-04-10 21:33 36.09963 -89.34314 28281 ft 305 kts 271°
2026-04-10 21:33 36.10031 -89.39565 28282 ft 305 kts 271°
2026-04-10 21:34 36.10096 -89.44810 28282 ft 305 kts 271°
2026-04-10 21:34 36.10160 -89.50058 28282 ft 305 kts 271°
2026-04-10 21:35 36.10220 -89.55281 28279 ft 305 kts 271°
2026-04-10 21:35 36.10279 -89.60554 28279 ft 306 kts 271°
2026-04-10 21:36 36.10326 -89.64935 28262 ft 306 kts 271°
2026-04-10 21:36 36.10389 -89.71050 28254 ft 306 kts 271°
2026-04-10 21:37 36.10432 -89.75427 28255 ft 306 kts 271°
2026-04-10 21:37 36.10482 -89.80696 28255 ft 306 kts 271°
2026-04-10 21:38 36.10529 -89.85930 28254 ft 306 kts 271°
2026-04-10 21:38 36.10575 -89.91194 28255 ft 306 kts 271°
2026-04-10 21:39 36.10618 -89.96463 28255 ft 306 kts 271°
2026-04-10 21:39 36.10659 -90.01724 28233 ft 306 kts 271°
2026-04-10 21:40 36.10697 -90.06993 28235 ft 306 kts 271°
2026-04-10 21:40 36.10734 -90.12240 28236 ft 307 kts 271°
2026-04-10 21:41 36.10767 -90.17529 28236 ft 307 kts 271°
2026-04-10 21:41 36.10799 -90.22807 28237 ft 307 kts 271°
2026-04-10 21:42 36.10829 -90.28090 28237 ft 307 kts 271°
2026-04-10 21:42 36.10855 -90.33365 28239 ft 306 kts 271°
2026-04-10 21:43 36.10880 -90.38616 28239 ft 306 kts 270°
2026-04-10 21:43 36.10902 -90.43893 28240 ft 307 kts 270°
2026-04-10 21:44 36.10922 -90.49175 28242 ft 307 kts 270°
2026-04-10 21:44 36.10940 -90.54452 28242 ft 307 kts 270°
2026-04-10 21:45 36.10955 -90.59704 28239 ft 307 kts 270°
2026-04-10 21:45 36.10968 -90.64996 28242 ft 307 kts 270°
2026-04-10 21:46 36.10979 -90.70283 28243 ft 307 kts 270°
2026-04-10 21:46 36.10987 -90.75548 28243 ft 307 kts 270°
2026-04-10 21:47 36.10993 -90.80826 28246 ft 307 kts 270°
2026-04-10 21:47 36.10998 -90.86105 28246 ft 307 kts 270°
2026-04-10 21:48 36.10998 -90.91386 28241 ft 306 kts 270°
2026-04-10 21:48 36.10818 -90.96614 28243 ft 307 kts 261°
2026-04-10 21:49 36.10040 -91.01809 28250 ft 307 kts 261°
2026-04-10 21:49 36.09274 -91.07005 28255 ft 307 kts 261°
2026-04-10 21:50 36.08497 -91.12200 28255 ft 307 kts 261°
2026-04-10 21:50 36.07726 -91.17366 28244 ft 307 kts 261°
2026-04-10 21:51 36.06946 -91.22560 28262 ft 307 kts 261°
2026-04-10 21:51 36.06162 -91.27772 28261 ft 308 kts 261°
2026-04-10 21:52 36.05376 -91.32982 28257 ft 308 kts 261°
2026-04-10 21:52 36.04588 -91.38182 28261 ft 308 kts 261°
2026-04-10 21:53 36.03799 -91.43379 28267 ft 308 kts 261°
2026-04-10 21:53 36.03012 -91.48547 28267 ft 307 kts 261°
2026-04-10 21:54 36.02219 -91.53741 28257 ft 307 kts 260°
2026-04-10 21:54 36.01422 -91.58938 28258 ft 308 kts 260°
2026-04-10 21:55 36.00629 -91.64102 28253 ft 308 kts 260°
2026-04-10 21:55 35.99827 -91.69303 28247 ft 308 kts 260°
2026-04-10 21:56 35.99023 -91.74501 28249 ft 308 kts 260°
2026-04-10 21:56 35.98219 -91.79686 28250 ft 308 kts 260°
2026-04-10 21:57 35.97417 -91.84841 28243 ft 308 kts 260°
2026-04-10 21:57 35.96608 -91.90025 28249 ft 308 kts 260°
2026-04-10 21:58 35.95796 -91.95216 28248 ft 308 kts 261°
2026-04-10 21:58 35.94982 -92.00407 28241 ft 308 kts 261°
2026-04-10 21:59 35.94166 -92.05591 28245 ft 308 kts 261°
2026-04-10 21:59 35.93348 -92.10771 28243 ft 308 kts 261°
2026-04-10 22:00 35.92528 -92.15954 28248 ft 308 kts 261°
2026-04-10 22:00 35.91710 -92.21105 28247 ft 308 kts 261°
2026-04-10 22:01 35.90885 -92.26283 28247 ft 308 kts 261°
2026-04-10 22:01 35.90058 -92.31464 28242 ft 308 kts 261°
2026-04-10 22:02 35.89226 -92.36656 28245 ft 308 kts 261°
2026-04-10 22:02 35.88392 -92.41853 28245 ft 309 kts 261°
2026-04-10 22:03 35.87560 -92.47014 28246 ft 309 kts 260°
2026-04-10 22:03 35.86719 -92.52222 28247 ft 309 kts 260°
2026-04-10 22:04 35.85875 -92.57432 28245 ft 309 kts 260°
2026-04-10 22:04 35.85036 -92.62601 28244 ft 309 kts 260°
2026-04-10 22:05 35.84185 -92.67812 28241 ft 309 kts 260°
2026-04-10 22:05 35.83335 -92.73016 28241 ft 310 kts 260°
2026-04-10 22:06 35.82482 -92.78224 28242 ft 310 kts 260°
2026-04-10 22:06 35.81630 -92.83410 28237 ft 310 kts 260°
2026-04-10 22:07 35.80771 -92.88618 28236 ft 310 kts 260°
2026-04-10 22:08 35.79481 -92.96416 28239 ft 310 kts 260°
2026-04-10 22:08 35.78623 -93.01583 28239 ft 309 kts 260°
2026-04-10 22:09 35.77757 -93.06790 28235 ft 310 kts 260°
2026-04-10 22:09 35.76888 -93.11998 28235 ft 310 kts 259°
2026-04-10 22:10 35.76015 -93.17210 28236 ft 311 kts 259°
2026-04-10 22:10 35.75145 -93.22399 28240 ft 311 kts 260°
2026-04-10 22:11 35.74265 -93.27624 28241 ft 311 kts 259°
2026-04-10 22:11 35.73383 -93.32853 28242 ft 311 kts 259°
2026-04-10 22:12 35.72504 -93.38042 28243 ft 311 kts 259°
2026-04-10 22:12 35.71617 -93.43269 28244 ft 312 kts 259°
2026-04-10 22:13 35.70728 -93.48493 28247 ft 312 kts 259°
2026-04-10 22:13 35.69837 -93.53717 28223 ft 312 kts 260°
2026-04-10 22:14 35.68944 -93.58934 28225 ft 312 kts 260°
2026-04-10 22:14 35.68053 -93.64122 28224 ft 312 kts 260°
2026-04-10 22:15 35.67154 -93.69348 28223 ft 312 kts 260°
2026-04-10 22:15 35.66253 -93.74571 28223 ft 312 kts 260°
2026-04-10 22:16 35.65354 -93.79767 28223 ft 312 kts 260°
2026-04-10 22:16 35.64448 -93.84988 28218 ft 312 kts 259°
2026-04-10 22:17 35.63540 -93.90211 28220 ft 312 kts 259°
2026-04-10 22:17 35.62630 -93.95427 28220 ft 312 kts 259°
2026-04-10 22:18 35.61903 -93.99583 28214 ft 312 kts 259°
2026-04-10 22:18 35.61533 -94.01698 28215 ft 312 kts 259°
2026-04-10 22:19 35.60619 -94.06902 28214 ft 312 kts 259°
2026-04-10 22:19 35.59703 -94.12113 28215 ft 312 kts 259°
2026-04-10 22:20 35.58785 -94.17319 28214 ft 312 kts 259°
2026-04-10 22:20 35.57864 -94.22525 28212 ft 312 kts 258°
2026-04-10 22:21 35.56940 -94.27736 28213 ft 312 kts 258°
2026-04-10 22:21 35.56019 -94.32915 28215 ft 312 kts 258°
2026-04-10 22:22 35.55090 -94.38128 28215 ft 313 kts 258°
2026-04-10 22:22 35.54157 -94.43348 28217 ft 313 kts 258°
2026-04-10 22:23 35.53220 -94.48579 28219 ft 314 kts 258°
2026-04-10 22:23 35.52279 -94.53813 28218 ft 314 kts 258°
2026-04-10 22:24 35.51336 -94.59048 28214 ft 313 kts 258°
2026-04-10 22:24 35.50399 -94.64236 28213 ft 313 kts 258°
2026-04-10 22:25 35.49452 -94.69461 28219 ft 313 kts 258°
2026-04-10 22:25 35.48657 -94.73839 28220 ft 313 kts 258°
2026-04-10 22:26 35.47712 -94.79037 28220 ft 313 kts 258°
2026-04-10 22:26 35.46760 -94.84253 28220 ft 313 kts 258°
2026-04-10 22:27 35.45804 -94.89473 28220 ft 313 kts 258°
2026-04-10 22:27 35.44853 -94.94661 28220 ft 314 kts 258°
2026-04-10 22:28 35.43895 -94.99873 28216 ft 312 kts 258°
2026-04-10 22:28 35.42939 -95.05056 28218 ft 311 kts 258°
2026-04-10 22:29 35.41982 -95.10239 28218 ft 312 kts 258°
2026-04-10 22:29 35.41022 -95.15413 28218 ft 311 kts 258°
2026-04-10 22:30 35.40062 -95.20585 28218 ft 311 kts 257°
2026-04-10 22:30 35.39100 -95.25751 28217 ft 311 kts 257°
2026-04-10 22:31 35.38134 -95.30920 28216 ft 311 kts 258°
2026-04-10 22:31 35.37172 -95.36064 28217 ft 312 kts 258°
2026-04-10 22:32 35.36196 -95.41266 28211 ft 312 kts 258°
2026-04-10 22:32 35.35221 -95.46446 28207 ft 311 kts 258°
2026-04-10 22:33 35.34248 -95.51608 28208 ft 311 kts 258°
2026-04-10 22:33 35.33757 -95.54200 28031 ft 315 kts 257°
2026-04-10 22:33 35.33262 -95.56824 27641 ft 316 kts 257°
2026-04-10 22:33 35.32771 -95.59422 27268 ft 317 kts 258°
2026-04-10 22:34 35.32272 -95.62051 26888 ft 317 kts 257°
2026-04-10 22:34 35.31772 -95.64680 26509 ft 317 kts 257°
2026-04-10 22:34 35.31272 -95.67313 26143 ft 317 kts 257°
2026-04-10 22:34 35.30769 -95.69951 25781 ft 317 kts 257°
2026-04-10 22:35 35.30266 -95.72587 25421 ft 318 kts 258°
2026-04-10 22:35 35.29762 -95.75225 25069 ft 318 kts 258°
2026-04-10 22:35 35.29257 -95.77870 24721 ft 319 kts 258°
2026-04-10 22:35 35.28764 -95.80445 24387 ft 320 kts 258°
2026-04-10 22:36 35.28488 -95.81883 24202 ft 320 kts 258°
2026-04-10 22:36 35.27980 -95.84533 23864 ft 320 kts 258°
2026-04-10 22:36 35.27471 -95.87188 23481 ft 321 kts 258°
2026-04-10 22:36 35.26966 -95.89819 23083 ft 321 kts 257°
2026-04-10 22:37 35.26452 -95.92489 22688 ft 322 kts 258°
2026-04-10 22:37 35.25936 -95.95164 22293 ft 323 kts 258°
2026-04-10 22:37 35.25419 -95.97841 21909 ft 323 kts 257°
2026-04-10 22:37 35.24901 -96.00523 21524 ft 324 kts 258°
2026-04-10 22:38 35.24383 -96.03202 21152 ft 324 kts 257°
2026-04-10 22:38 35.23865 -96.05882 20781 ft 323 kts 257°
2026-04-10 22:38 35.23376 -96.08399 20436 ft 322 kts 257°
2026-04-10 22:38 35.22858 -96.11068 20073 ft 322 kts 257°
2026-04-10 22:39 35.22341 -96.13732 19716 ft 322 kts 257°
2026-04-10 22:39 35.21821 -96.16396 19362 ft 321 kts 257°
2026-04-10 22:39 35.21307 -96.19036 19195 ft 315 kts 258°
2026-04-10 22:39 35.20962 -96.21634 19187 ft 305 kts 268°
2026-04-10 22:40 35.21053 -96.24162 19177 ft 300 kts 277°
2026-04-10 22:40 35.21322 -96.26698 18911 ft 304 kts 277°
2026-04-10 22:40 35.21573 -96.29278 18449 ft 307 kts 277°
2026-04-10 22:40 35.21824 -96.31882 17924 ft 309 kts 277°
2026-04-10 22:41 35.22085 -96.34490 17402 ft 309 kts 277°
2026-04-10 22:41 35.22348 -96.37101 16900 ft 309 kts 277°
2026-04-10 22:41 35.22605 -96.39704 16394 ft 307 kts 277°
2026-04-10 22:41 35.22858 -96.42296 15899 ft 306 kts 277°
2026-04-10 22:42 35.23112 -96.44881 15416 ft 305 kts 277°
2026-04-10 22:42 35.23368 -96.47455 14937 ft 304 kts 277°
2026-04-10 22:42 35.23620 -96.50008 14466 ft 300 kts 277°
2026-04-10 22:42 35.23863 -96.52513 14005 ft 299 kts 277°
2026-04-10 22:43 35.24110 -96.55044 13482 ft 299 kts 276°
2026-04-10 22:43 35.24356 -96.57565 12995 ft 298 kts 276°
2026-04-10 22:43 35.24601 -96.60084 12487 ft 297 kts 276°
2026-04-10 22:43 35.24843 -96.62585 11998 ft 296 kts 276°
2026-04-10 22:44 35.24977 -96.65093 11502 ft 294 kts 271°
2026-04-10 22:44 35.25079 -96.67579 11064 ft 292 kts 271°
2026-04-10 22:44 35.25199 -96.69977 11033 ft 279 kts 271°
2026-04-10 22:44 35.25312 -96.72306 11029 ft 271 kts 272°
2026-04-10 22:45 35.25420 -96.74583 10982 ft 267 kts 271°
2026-04-10 22:45 35.25518 -96.76871 10813 ft 269 kts 271°
2026-04-10 22:45 35.25622 -96.79162 10648 ft 270 kts 271°
2026-04-10 22:45 35.25730 -96.81454 10479 ft 270 kts 271°
2026-04-10 22:46 35.25836 -96.83750 10286 ft 270 kts 271°
2026-04-10 22:46 35.25937 -96.86042 10121 ft 270 kts 270°
2026-04-10 22:46 35.26043 -96.88353 9832 ft 274 kts 270°
2026-04-10 22:46 35.26150 -96.90674 9598 ft 273 kts 271°
2026-04-10 22:47 35.26251 -96.92968 9371 ft 273 kts 271°
2026-04-10 22:47 35.26353 -96.95287 9141 ft 272 kts 271°
2026-04-10 22:47 35.26648 -96.97584 8812 ft 278 kts 287°
2026-04-10 22:47 35.27580 -96.99680 8478 ft 282 kts 300°
2026-04-10 22:48 35.28671 -97.01676 8162 ft 282 kts 302°
2026-04-10 22:48 35.29775 -97.03665 7849 ft 283 kts 302°
2026-04-10 22:48 35.30900 -97.05648 7534 ft 283 kts 302°
2026-04-10 22:48 35.32012 -97.07639 7224 ft 283 kts 303°
2026-04-10 22:49 35.33135 -97.09621 6915 ft 283 kts 302°
2026-04-10 22:49 35.34261 -97.11595 6587 ft 283 kts 303°
2026-04-10 22:49 35.35371 -97.13544 6214 ft 282 kts 302°
2026-04-10 22:49 35.36485 -97.15519 5837 ft 280 kts 303°
2026-04-10 22:50 35.37573 -97.17455 5491 ft 280 kts 303°
2026-04-10 22:50 35.38699 -97.19446 5118 ft 279 kts 303°
2026-04-10 22:50 35.39789 -97.21377 4752 ft 272 kts 303°
2026-04-10 22:50 35.40865 -97.23283 4375 ft 269 kts 303°
2026-04-10 22:51 35.41918 -97.25169 4033 ft 266 kts 303°
2026-04-10 22:51 35.42941 -97.26994 4017 ft 261 kts 303°
2026-04-10 22:51 35.43964 -97.28821 4013 ft 257 kts 303°
2026-04-10 22:51 35.44976 -97.30620 4013 ft 255 kts 303°
2026-04-10 22:52 35.45979 -97.32416 4009 ft 254 kts 303°
2026-04-10 22:52 35.46973 -97.34208 4007 ft 253 kts 302°
2026-04-10 22:52 35.47979 -97.35993 4007 ft 254 kts 303°
2026-04-10 22:52 35.48980 -97.37761 4007 ft 253 kts 303°
2026-04-10 22:53 35.49980 -97.39538 4006 ft 253 kts 303°
2026-04-10 22:53 35.50975 -97.41314 4006 ft 252 kts 302°
2026-04-10 22:53 35.51972 -97.43084 4006 ft 253 kts 303°
2026-04-10 22:53 35.52968 -97.44835 4007 ft 251 kts 303°
2026-04-10 22:54 35.53938 -97.46559 4005 ft 242 kts 302°
2026-04-10 22:54 35.54541 -97.48434 3991 ft 234 kts 277°
2026-04-10 22:54 35.54743 -97.50383 3990 ft 228 kts 273°
2026-04-10 22:54 35.54910 -97.52309 3991 ft 225 kts 272°
2026-04-10 22:55 35.55074 -97.54250 3810 ft 231 kts 274°
2026-04-10 22:55 35.55080 -97.56217 3618 ft 231 kts 258°
2026-04-10 22:55 35.54467 -97.57934 3418 ft 202 kts 232°
2026-04-10 22:55 35.53485 -97.58868 3207 ft 167 kts 194°
2026-04-10 22:56 35.52390 -97.58953 3025 ft 156 kts 175°
2026-04-10 22:56 35.51303 -97.58911 3007 ft 156 kts 177°
2026-04-10 22:56 35.50213 -97.58900 3011 ft 157 kts 177°
2026-04-10 22:56 35.49108 -97.58896 2954 ft 161 kts 177°
2026-04-10 22:57 35.47953 -97.58894 2755 ft 169 kts 177°
2026-04-10 22:57 35.46776 -97.58893 2536 ft 173 kts 179°
2026-04-10 22:57 35.45676 -97.58901 2333 ft 128 kts 177°
2026-04-10 22:57 35.44917 -97.58901 2179 ft 103 kts 176°
2026-04-10 22:58 35.44221 -97.58893 2049 ft 99 kts 177°
2026-04-10 22:58 35.43523 -97.58891 1903 ft 101 kts 179°
2026-04-10 22:58 35.42840 -97.58893 1783 ft 97 kts 175°
2026-04-10 22:58 35.42151 -97.58884 1636 ft 100 kts 179°
2026-04-10 22:59 35.41476 -97.58891 1489 ft 93 kts 177°
2026-04-10 22:59 35.40862 -97.58890 1369 ft 85 kts 179°
2026-04-10 22:59 35.40314 -97.58894 1300 ft 67 kts 178°
2026-04-10 22:59 35.39958 -97.58892 1292 ft 34 kts 180°
2026-04-10 23:00 35.39759 -97.58882 1289 ft 18 kts 150°
2026-04-10 23:00 35.39720 -97.58783 1287 ft 0 kts 89°
2026-04-10 23:01 35.39720 -97.58751 1287 ft 13 kts 89°
2026-04-10 23:01 35.39715 -97.58610 1287 ft 12 kts 127°
2026-04-10 23:01 35.39639 -97.58571 1286 ft 15 kts 143°
2026-04-10 23:01 35.39622 -97.58530 1287 ft 0 kts